Garden City, KS

4:56 PM CST on November 23, 2017 (GMT -0600)
Garden City Regional

Weather History for KGCK - September, 2013

Change the Weather History Date:

Sunday, September 15, 2013

  Actual Average Record
Temperature  
Mean Temperature 71 °F 68 °F  
Max Temperature 81 °F 83 °F 100 °F (1978)
Min Temperature 60 °F 55 °F 36 °F (1993)
Degree Days  
Heating Degree Days 0 2  
Month to date heating degree days 0 14  
Since 1 July heating degree days 0 18  
Cooling Degree Days 6 5  
Month to date cooling degree days 167 109  
Year to date cooling degree days 1509 1225  
Growing Degree Days 20 (Base 50)    
Moisture  
Dew Point 61 °F    
Average Humidity 74    
Maximum Humidity 93    
Minimum Humidity 54    
Precipitation  
Precipitation 0.00 in 0.05 in 1.47 in (1976)
Month to date precipitation 0.74 0.79  
Year to date precipitation 10.91 16.44  
Sea Level Pressure  
Sea Level Pressure 30.00 in    
Wind  
Wind Speed 15 mph (NNE)    
Max Wind Speed 24 mph    
Max Gust Speed 29 mph    
Visibility 8 miles    
Events Thunderstorm    
T = Trace of Precipitation, MM = Missing Value Source: NWS Daily Summary

Daily Weather History Graph

Daily Weather History Graph

Search for Another Location

Airport or City:

Trip Planner

Search our weather history database for the weather conditions in past years. The results will help you decide how hot, cold, wet, or windy it might be!

Date:

Astronomy

Sep. 15, 2013 Rise Set
Actual Time 7:24 AM CDT 7:50 PM CDT
Civil Twilight 6:58 AM CDT 8:16 PM CDT
Nautical Twilight 6:27 AM CDT 8:47 PM CDT
Astronomical Twilight 5:55 AM CDT 9:19 PM CDT
Moon 5:16 PM CDT (9/15) 3:08 AM CDT (9/15)
Length of Visible Light 13h 18m
Length of Day
12h 25m
Waxing Gibbous, 82% of the Moon is Illuminated
Sep 15
Waxing Gibbous
Sep 19
Full
Sep 26
Last Quarter
Oct 4
New
Oct 11
First Quarter

Hourly Weather History & Observations

Time (CDT) Temp. Heat Index Dew Point Humidity Pressure Visibility Wind Dir Wind Speed Gust Speed Precip Events Conditions
12:54 AM 69.1 °F - 64.0 °F 84% 29.87 in 7.0 mi South 10.4 mph - N/A   Overcast
1:54 AM 68.0 °F - 64.9 °F 90% 29.85 in 5.0 mi South 12.7 mph - N/A   Clear
2:54 AM 66.9 °F - 64.0 °F 90% 29.86 in 5.0 mi South 12.7 mph - N/A   Mostly Cloudy
3:54 AM 66.9 °F - 64.0 °F 90% 29.84 in 4.0 mi South 10.4 mph - N/A   Clear
4:54 AM 66.0 °F - 64.0 °F 93% 29.85 in 4.0 mi South 9.2 mph - N/A   Clear
5:54 AM 66.0 °F - 63.0 °F 90% 29.85 in 4.0 mi South 9.2 mph - N/A   Clear
6:54 AM 66.0 °F - 63.0 °F 90% 29.86 in 4.0 mi SSW 10.4 mph - N/A   Clear
7:54 AM 66.0 °F - 63.0 °F 90% 29.87 in 3.0 mi SSW 12.7 mph - N/A   Clear
8:54 AM 70.0 °F - 63.0 °F 78% 29.88 in 5.0 mi SW 12.7 mph - N/A   Haze
9:54 AM 72.0 °F - 61.0 °F 68% 29.90 in 8.0 mi WSW 13.8 mph - N/A   Clear
10:54 AM 73.9 °F - 61.0 °F 64% 29.93 in 10.0 mi West 13.8 mph - N/A   Clear
11:54 AM 75.9 °F - 62.1 °F 62% 29.94 in 10.0 mi North 8.1 mph - N/A   Clear
12:54 PM 78.1 °F - 63.0 °F 60% 29.95 in 10.0 mi NNW 12.7 mph 18.4 mph N/A   Scattered Clouds
1:54 PM 80.1 °F 81.5 °F 63.0 °F 56% 29.96 in 9.0 mi North 10.4 mph - N/A   Mostly Cloudy
2:54 PM 79.0 °F - 64.9 °F 62% 29.97 in 8.0 mi NNE 17.3 mph - N/A   Mostly Cloudy
3:20 PM 75.2 °F - 64.4 °F 69% 30.07 in 8.0 mi North 20.7 mph 27.6 mph N/A   Mostly Cloudy
3:54 PM 73.0 °F - 63.0 °F 71% 30.00 in 9.0 mi NNE 20.7 mph 26.5 mph N/A   Mostly Cloudy
4:37 PM 66.2 °F - 60.8 °F 83% 30.10 in 10.0 mi North 21.9 mph 27.6 mph N/A   Overcast
4:54 PM 66.0 °F - 60.1 °F 81% 30.03 in 9.0 mi NNE 21.9 mph 27.6 mph N/A   Overcast
5:06 PM 66.2 °F - 60.8 °F 83% 30.11 in 10.0 mi NNE 20.7 mph 26.5 mph N/A   Overcast
5:18 PM 66.2 °F - 59.0 °F 78% 30.11 in 10.0 mi NNE 18.4 mph 28.8 mph N/A   Overcast
5:25 PM 66.2 °F - 59.0 °F 78% 30.11 in 10.0 mi NNE 18.4 mph 24.2 mph N/A   Overcast
5:54 PM 66.0 °F - 57.9 °F 75% 30.05 in 10.0 mi NNE 20.7 mph 26.5 mph N/A   Overcast
6:54 PM 64.0 °F - 57.9 °F 80% 30.08 in 10.0 mi NNE 21.9 mph 27.6 mph N/A   Overcast
7:54 PM 62.1 °F - 57.9 °F 86% 30.10 in 10.0 mi NNE 20.7 mph - N/A   Overcast
8:54 PM 62.1 °F - 57.0 °F 84% 30.12 in 10.0 mi NNE 18.4 mph - N/A   Overcast
9:14 PM 62.6 °F - 57.2 °F 82% 30.19 in 10.0 mi NNE 18.4 mph - N/A Thunderstorm Overcast
9:40 PM 60.8 °F - 57.2 °F 88% 30.20 in 10.0 mi NE 16.1 mph - N/A   Overcast
9:54 PM 61.0 °F - 57.0 °F 87% 30.12 in 10.0 mi NNE 16.1 mph - N/A   Overcast
10:54 PM 61.0 °F - 57.0 °F 87% 30.13 in 10.0 mi NE 16.1 mph - N/A   Overcast
11:54 PM 61.0 °F - 57.0 °F 87% 30.13 in 10.0 mi NE 16.1 mph 24.2 mph N/A   Overcast